Date String (YYYY-MM-DD hh:mm:ss) UTC,Instrument flags,Ambient pressure (hPa),Sample flow (lpm),Bypass flow (lpm),Sample temperature (°C),Ambient temperature (°C),ASC tube jacket temperature (°C),LED temperature (°C),Box temperature (°C),Sample RH (%),Span deviation,Mass concentration (μg/m³),Mass concentration (μg/m³),Mass concentration (μg/m³)
DateTimeUTC,F1_M11,P_M11,Q1_M11,Q2_M11,T1_M11,T2_M11,T3_M11,T4_M11,T5_M11,U1_M11,ZSPAN_M11,X2_M11,X0_M11,X1_M11
2021-11-24 19:00:00,,0826.8,5.00,0.00,23.3,22.6,00.0,32.4,25.1,10.0,0000.0,0003.16,0012.26,0001.80
2021-11-24 19:01:00,,0826.8,5.00,0.00,23.3,22.6,00.0,32.4,25.1,10.0,0000.0,0003.14,0011.99,0001.79
2021-11-24 19:02:00,,0826.9,4.99,0.00,23.3,22.6,00.0,32.3,25.1,09.8,0000.0,0003.13,0011.59,0001.80
2021-11-24 19:03:00,,0826.9,5.00,0.00,23.3,22.7,00.0,32.3,25.1,09.9,0000.0,0003.09,0011.45,0001.80
2021-11-24 19:04:00,,0826.8,5.01,0.00,23.3,22.7,00.0,32.3,25.1,10.0,0000.0,0003.05,0012.02,0001.80
2021-11-24 19:05:00,,0826.8,4.99,0.00,23.3,22.7,00.0,32.3,25.1,10.1,0000.0,0002.97,0011.93,0001.81
2021-11-24 19:06:00,,0826.8,5.01,0.00,23.3,22.7,00.0,32.3,25.1,10.1,0000.0,0003.00,0010.93,0001.82
2021-11-24 19:07:00,,0826.8,5.00,0.00,23.3,22.7,00.0,32.3,25.1,10.0,0000.0,0002.94,0010.64,0001.82
2021-11-24 19:08:00,,0826.8,5.00,0.00,23.3,22.7,00.0,32.3,25.1,09.9,0000.0,0002.91,0010.48,0001.83
2021-11-24 19:09:00,,0826.7,5.00,0.00,23.4,22.7,00.0,32.3,25.1,09.9,0000.0,0002.96,0010.76,0001.82
2021-11-24 19:10:00,,0826.8,5.00,0.00,23.4,22.7,00.0,32.3,25.1,10.0,0000.0,0002.99,0010.50,0001.83
2021-11-24 19:11:00,,0826.8,5.01,0.00,23.4,22.8,00.0,32.4,25.1,09.9,0000.0,0002.99,0010.60,0001.84
2021-11-24 19:12:00,,0826.8,5.00,0.00,23.3,22.7,00.0,32.4,25.1,09.8,0000.0,0002.92,0011.73,0001.84
2021-11-24 19:13:00,,0826.8,5.01,0.00,23.3,22.7,00.0,32.4,25.1,09.8,0000.0,0003.01,0012.13,0001.84
2021-11-24 19:14:00,,0826.7,5.00,0.00,23.3,22.7,00.0,32.4,25.1,09.8,0000.0,0003.03,0012.17,0001.83
2021-11-24 19:15:00,,0826.8,4.99,0.00,23.3,22.7,00.0,32.4,25.1,09.9,0000.0,0003.01,0011.71,0001.83
2021-11-24 19:16:00,,0826.8,5.00,0.00,23.3,22.7,00.0,32.4,25.1,09.9,0000.0,0002.97,0011.45,0001.82
2021-11-24 19:17:00,,0826.7,4.99,0.00,23.3,22.7,00.0,32.3,25.1,09.8,0000.0,0002.94,0011.61,0001.80
2021-11-24 19:18:00,,0826.7,5.01,0.00,23.3,22.7,00.0,32.3,25.1,09.8,0000.0,0002.99,0011.57,0001.80
2021-11-24 19:19:00,,0826.7,5.00,0.00,23.3,22.7,00.0,32.4,25.1,09.9,0000.0,0003.04,0010.95,0001.80
2021-11-24 19:20:00,,0826.8,4.99,0.00,23.3,22.7,00.0,32.3,25.1,09.8,0000.0,0003.02,0010.40,0001.80
2021-11-24 19:21:00,,0826.8,5.00,0.00,23.3,22.7,00.0,32.3,25.1,09.8,0000.0,0003.02,0010.20,0001.80
2021-11-24 19:22:00,,0826.8,5.00,0.00,23.3,22.7,00.0,32.3,25.0,09.8,0000.0,0003.00,0010.04,0001.79
2021-11-24 19:23:00,,0826.8,4.99,0.00,23.3,22.7,00.0,32.3,25.1,09.8,0000.0,0003.03,0008.61,0001.81
2021-11-24 19:24:00,,0826.8,5.01,0.00,23.3,22.7,00.0,32.3,25.0,09.8,0000.0,0003.01,0008.40,0001.82
2021-11-24 19:25:00,,0826.8,5.00,0.00,23.3,22.7,00.0,32.3,25.1,09.8,0000.0,0003.02,0008.68,0001.83
2021-11-24 19:26:00,,0826.8,4.99,0.00,23.3,22.7,00.0,32.3,25.1,09.8,0000.0,0003.07,0008.47,0001.84
2021-11-24 19:27:00,,0826.8,5.01,0.00,23.3,22.7,00.0,32.3,25.1,09.8,0000.0,0003.04,0008.12,0001.85
2021-11-24 19:28:00,,0826.8,4.99,0.00,23.3,22.7,00.0,32.3,25.1,09.7,0000.0,0003.05,0008.40,0001.85
2021-11-24 19:29:00,,0826.8,5.00,0.00,23.3,22.7,00.0,32.3,25.1,09.7,0000.0,0003.07,0008.42,0001.84
2021-11-24 19:30:00,,0826.9,5.00,0.00,23.3,22.7,00.0,32.3,25.1,09.6,0000.0,0003.05,0008.74,0001.84
2021-11-24 19:31:00,,0827.0,5.00,0.00,23.4,22.8,00.0,32.3,25.1,09.6,0000.0,0003.08,0009.17,0001.84
2021-11-24 19:32:00,,0827.1,5.00,0.00,23.4,22.8,00.0,32.3,25.1,09.6,0000.0,0003.09,0009.76,0001.84
2021-11-24 19:33:00,,0827.1,4.99,0.00,23.4,22.8,00.0,32.3,25.2,09.7,0000.0,0003.08,0009.48,0001.83
2021-11-24 19:34:00,,0826.9,5.01,0.00,23.4,22.9,00.0,32.4,25.2,09.6,0000.0,0003.10,0009.50,0001.82
2021-11-24 19:35:00,,0826.9,5.01,0.00,23.4,22.9,00.0,32.4,25.3,09.6,0000.0,0003.11,0009.37,0001.81
2021-11-24 19:36:00,,0826.9,4.99,0.00,23.5,22.9,00.0,32.4,25.3,08.7,0000.0,0003.09,0009.07,0001.77
2021-11-24 19:37:00,,0826.9,5.00,0.00,23.5,23.0,00.0,32.4,25.3,08.1,0000.0,0002.95,0008.88,0001.70
2021-11-24 19:38:00,,0826.9,5.01,0.00,23.5,23.0,00.0,32.4,25.3,07.9,0000.0,0002.87,0008.93,0001.61
2021-11-24 19:39:00,,0826.9,4.99,0.00,23.5,23.0,00.0,32.4,25.4,07.8,0000.0,0002.72,0008.63,0001.52
2021-11-24 19:40:00,,0826.9,5.01,0.00,23.6,23.0,00.0,32.4,25.4,07.7,0000.0,0002.50,0008.34,0001.43
2021-11-24 19:41:00,,0826.9,5.00,0.00,23.6,23.0,00.0,32.5,25.4,07.7,0000.0,0002.30,0007.86,0001.33
2021-11-24 19:42:00,,0826.9,5.00,0.00,23.6,23.1,00.0,32.5,25.4,07.7,0000.0,0002.13,0007.27,0001.24
2021-11-24 19:43:00,,0826.9,5.00,0.00,23.6,23.1,00.0,32.5,25.4,07.6,0000.0,0002.01,0006.31,0001.16
2021-11-24 19:44:00,,0826.9,5.01,0.00,23.6,23.1,00.0,32.5,25.4,07.6,0000.0,0001.88,0006.45,0001.08
2021-11-24 19:45:00,,0826.9,5.00,0.00,23.7,23.1,00.0,32.5,25.5,07.6,0000.0,0001.70,0005.77,0000.99
2021-11-24 19:46:00,,0826.9,5.00,0.00,23.7,23.1,00.0,32.5,25.5,07.6,0000.0,0001.49,0005.25,0000.90
2021-11-24 19:47:00,,0826.9,5.00,0.00,23.7,23.1,00.0,32.6,25.5,07.6,0000.0,0001.33,0004.72,0000.84
2021-11-24 19:48:00,,0827.0,5.00,0.00,23.7,23.1,00.0,32.6,25.5,07.7,0000.0,0001.28,0004.60,0000.82
2021-11-24 19:49:00,,0826.9,5.00,0.00,23.7,23.1,00.0,32.6,25.5,07.7,0000.0,0001.25,0004.41,0000.82
2021-11-24 19:50:00,,0826.9,5.00,0.00,23.7,23.2,00.0,32.6,25.5,07.7,0000.0,0001.26,0003.28,0000.82
2021-11-24 19:51:00,,0827.0,5.01,0.00,23.8,23.2,00.0,32.6,25.5,07.7,0000.0,0001.34,0003.52,0000.82
2021-11-24 19:52:00,,0826.9,5.00,0.00,23.8,23.2,00.0,32.6,25.6,07.6,0000.0,0001.35,0003.53,0000.83
2021-11-24 19:53:00,,0826.9,5.00,0.00,23.8,23.2,00.0,32.7,25.6,07.5,0000.0,0001.37,0003.49,0000.84
2021-11-24 19:54:00,,0826.9,5.00,0.00,23.8,23.2,00.0,32.7,25.6,07.5,0000.0,0001.34,0002.90,0000.83
2021-11-24 19:55:00,,0826.9,4.99,0.00,23.8,23.3,00.0,32.7,25.6,07.3,0000.0,0001.34,0002.49,0000.83
2021-11-24 19:56:00,,0827.0,5.01,0.00,23.9,23.3,00.0,32.7,25.7,07.2,0000.0,0001.33,0002.48,0000.82
2021-11-24 19:57:00,,0826.8,5.00,0.00,23.9,23.3,00.0,32.7,25.7,07.4,0000.0,0001.34,0002.51,0000.81
2021-11-24 19:58:00,,0826.9,4.99,0.00,23.9,23.3,00.0,32.7,25.7,07.5,0000.0,0001.32,0002.48,0000.80
2021-11-24 19:59:00,,0827.0,5.00,0.00,23.9,23.3,00.0,32.8,25.7,07.5,0000.0,0001.28,0002.40,0000.78
